Weather History for KTRK - August, 2013

Change the Weather History Date:

Thursday, August 29, 2013

  Actual Average Record
Temperature  
Mean Temperature 58 °F -  
Max Temperature 78 °F 79 °F 93 °F (1950)
Min Temperature 39 °F 42 °F 27 °F (1957)
Degree Days  
Heating Degree Days 6    
Growing Degree Days 8 (Base 50)    
Moisture  
Dew Point 37 °F    
Average Humidity 54    
Maximum Humidity 87    
Minimum Humidity 16    
Precipitation  
Precipitation 0.00 in - - ()
Sea Level Pressure  
Sea Level Pressure 30.26 in    
Wind  
Wind Speed 4 mph (SW)    
Max Wind Speed 21 mph    
Max Gust Speed 26 mph    
Visibility 9 miles    
Events      
Averages and records for this station are not official NWS values.
T = Trace of Precipitation, MM = Missing Value Source: NWS Daily Summary

Daily Weather History Graph

Daily Weather History Graph

Search for Another Location

Airport or City:

Trip Planner

Search our weather history database for the weather conditions in past years. The results will help you decide how hot, cold, wet, or windy it might be!

Date:

Astronomy

Aug. 29, 2013 Rise Set
Actual Time 6:26 AM PDT 7:35 PM PDT
Civil Twilight 5:58 AM PDT 8:02 PM PDT
Nautical Twilight 5:25 AM PDT 8:35 PM PDT
Astronomical Twilight 4:51 AM PDT 9:10 PM PDT
Moon 12:23 AM PDT (8/29) 3:07 PM PDT (8/29)
Length of Visible Light 14h 04m
Length of Day
13h 08m
Last Quarter, 37% of the Moon is Illuminated
Aug 29
Last Quarter
Sep 5
New
Sep 12
First Quarter
Sep 19
Full
Sep 26
Last Quarter

Hourly Weather History & Observations

Time (PDT) Temp. Windchill Dew Point Humidity Pressure Visibility Wind Dir Wind Speed Gust Speed Precip Events Conditions
12:15 AM 48.2 °F - 39.2 °F 71% 30.22 in 10.0 mi South 3.5 mph - N/A   Clear
12:35 AM 48.2 °F - 39.2 °F 71% 30.22 in 10.0 mi Calm Calm - N/A   Clear
12:55 AM 46.4 °F - 35.6 °F 66% 30.22 in 10.0 mi Calm Calm - N/A   Clear
1:15 AM 44.6 °F - 37.4 °F 76% 30.22 in 10.0 mi Calm Calm - N/A   Clear
1:35 AM 44.6 °F - 37.4 °F 76% 30.22 in 10.0 mi Calm Calm - N/A   Clear
1:55 AM 44.6 °F 43.1 °F 35.6 °F 71% 30.22 in 10.0 mi SSE 3.5 mph - N/A   Clear
2:15 AM 46.4 °F - 37.4 °F 71% 30.21 in 10.0 mi Calm Calm - N/A   Clear
2:35 AM 44.6 °F 43.1 °F 37.4 °F 76% 30.22 in 10.0 mi SW 3.5 mph - N/A   Clear
2:55 AM 44.6 °F 43.1 °F 37.4 °F 76% 30.21 in 10.0 mi WSW 3.5 mph - N/A   Clear
3:15 AM 41.0 °F 39.0 °F 35.6 °F 81% 30.22 in 10.0 mi WSW 3.5 mph - N/A   Clear
3:35 AM 44.6 °F 43.1 °F 37.4 °F 76% 30.22 in 10.0 mi ESE 3.5 mph - N/A   Clear
3:55 AM 44.6 °F 42.2 °F 37.4 °F 76% 30.22 in 10.0 mi SSW 4.6 mph - N/A   Clear
4:15 AM 42.8 °F - 37.4 °F 81% 30.22 in 10.0 mi Calm Calm - N/A   Clear
4:35 AM 41.0 °F - 35.6 °F 81% 30.22 in 10.0 mi Calm Calm - N/A   Clear
4:55 AM 42.8 °F - 37.4 °F 81% 30.22 in 8.0 mi Calm Calm - N/A   Clear
5:15 AM 39.2 °F 35.0 °F 35.6 °F 87% 30.22 in 7.0 mi South 5.8 mph - N/A   Clear
5:35 AM 42.8 °F - 37.4 °F 81% 30.22 in 7.0 mi Calm Calm - N/A   Clear
5:55 AM 44.6 °F - 37.4 °F 76% 30.23 in 7.0 mi Calm Calm - N/A   Clear
6:15 AM 41.0 °F - 37.4 °F 87% 30.23 in 8.0 mi Calm Calm - N/A   Clear
6:35 AM 41.0 °F - 35.6 °F 81% 30.24 in 7.0 mi Calm Calm - N/A   Clear
6:50 AM 41.0 °F - 35.6 °F 81% 30.25 in 10.0 mi Calm Calm - N/A   Clear
7:50 AM 50.0 °F - 39.2 °F 66% 30.26 in 10.0 mi Calm Calm - N/A   Clear
8:50 AM 68.0 °F - 39.2 °F 35% 30.26 in 10.0 mi South 12.7 mph - N/A   Clear
10:50 AM 73.4 °F - 32.0 °F 22% 30.28 in 10.0 mi SSW 20.7 mph 25.3 mph N/A   Clear
10:55 AM 71.6 °F - 35.6 °F 27% 30.28 in 10.0 mi SSW 10.4 mph - N/A   Clear
11:50 AM 75.2 °F - 32.0 °F 21% 30.28 in 10.0 mi South 15.0 mph 20.7 mph N/A   Clear
12:45 PM 77.0 °F - 30.2 °F 18% 30.28 in 10.0 mi WSW 16.1 mph 21.9 mph N/A   Clear
1:55 PM 78.8 °F - 28.4 °F 16% 30.28 in 10.0 mi SW 17.3 mph 24.2 mph N/A   Clear
2:50 PM 78.8 °F - 68.0 °F 69% 30.27 in 10.0 mi South 17.3 mph 26.5 mph N/A   Clear
3:55 PM 77.0 °F - 33.8 °F 21% 30.27 in 8.0 mi WSW 11.5 mph 25.3 mph N/A   Clear
4:50 PM 75.2 °F - 33.8 °F 22% 30.27 in 8.0 mi WSW 13.8 mph 19.6 mph N/A   Clear
5:50 PM 75.2 °F - 35.6 °F 24% 30.28 in 7.0 mi South 12.7 mph 19.6 mph N/A   Clear
5:55 PM 73.4 °F - 35.6 °F 25% 30.28 in 9.0 mi SW 12.7 mph 19.6 mph N/A   Clear
6:15 PM 73.4 °F - 35.6 °F 25% 30.28 in 10.0 mi WSW 5.8 mph 18.4 mph N/A   Clear
6:35 PM 73.4 °F - 35.6 °F 25% 30.28 in 10.0 mi SW 9.2 mph - N/A   Clear
6:55 PM 71.6 °F - 37.4 °F 29% 30.27 in 10.0 mi West 9.2 mph - N/A   Clear
7:15 PM 68.0 °F - 37.4 °F 33% 30.27 in 5.0 mi WSW 8.1 mph - N/A   Haze
7:35 PM 66.2 °F - 37.4 °F 35% 30.28 in 5.0 mi West 10.4 mph - N/A   Haze
7:55 PM 64.4 °F - 37.4 °F 37% 30.28 in 7.0 mi West 6.9 mph - N/A   Clear
8:15 PM 62.6 °F - 37.4 °F 39% 30.29 in 8.0 mi Calm Calm - N/A   Clear
8:35 PM 62.6 °F - 37.4 °F 39% 30.30 in 8.0 mi Calm Calm - N/A   Clear
8:55 PM 62.6 °F - 37.4 °F 39% 30.31 in 10.0 mi NW 4.6 mph - N/A   Clear
9:15 PM 57.2 °F - 35.6 °F 44% 30.31 in 10.0 mi SE 3.5 mph - N/A   Clear
9:35 PM 51.8 °F - 33.8 °F 50% 30.31 in 10.0 mi South 4.6 mph - N/A   Clear
9:55 PM 53.6 °F - 35.6 °F 51% 30.31 in 10.0 mi SE 3.5 mph - N/A   Clear
10:15 PM 50.0 °F - 35.6 °F 58% 30.31 in 10.0 mi West 3.5 mph - N/A   Clear
10:35 PM 55.4 °F - 35.6 °F 47% 30.31 in 10.0 mi Calm Calm - N/A   Clear
10:55 PM 50.0 °F - 33.8 °F 54% 30.32 in 10.0 mi Calm Calm - N/A   Clear
11:15 PM 48.2 °F - 33.8 °F 58% 30.32 in 10.0 mi Calm Calm - N/A   Clear
11:35 PM 46.4 °F 45.2 °F 33.8 °F 62% 30.32 in 10.0 mi SW 3.5 mph - N/A   Clear
11:55 PM 50.0 °F - 35.6 °F 58% 30.32 in 10.0 mi Calm Calm - N/A   Clear